This demonstration page uses our WeatherBlox Daily Observations layout. Learn more.

Left ArrowRight Arrow

40.97296, -117.73568

Hourly Observations for March 26, 2016

Temp ( °F °C ) Dew Point ( °F °C ) Humidity (%) Winds ( mph kmh ) Pressure ( in mb ) Visibility ( mi km ) Precip ( " mm )
12:56 am 00:56 Clear 33 0.6 20 -6.7 58 58 SW 3 6 30.10 1019 10 16 0.00 0.00
1:56 am 01:56 Clear 31 -0.6 20 -6.7 64 64 N 5 7 30.10 1019 10 16 0.00 0.00
2:56 am 02:56 Clear 24 -4.4 19 -7.2 81 81 W 8 13 30.12 1020 10 16 0.00 0.00
3:56 am 03:56 Clear 23 -5 18 -7.8 81 81 Calm 30.13 1020 10 16 0.00 0.00
4:56 am 04:56 Clear 21 -6.1 16 -8.9 81 81 NE 3 6 30.14 1021 10 16 0.00 0.00
5:56 am 05:56 Clear 17 -8.3 13 -10.6 84 84 NNE 6 9 30.16 1021 10 16 0.00 0.00
6:56 am 06:56 Sunny 16 -8.9 13 -10.6 88 88 E 3 6 30.19 1022 10 16 0.00 0.00
7:56 am 07:56 Sunny 28 -2.2 19 -7.2 69 69 ENE 5 7 30.19 1022 10 16 0.00 0.00
8:56 am 08:56 Sunny 33 0.6 21 -6.1 61 61 NE 9 15 30.18 1022 10 16 0.00 0.00
9:56 am 09:56 Sunny 37 2.8 21 -6.1 52 52 NE 5 7 30.16 1021 10 16 0.00 0.00
10:56 am 10:56 Sunny 42 5.6 19 -7.2 40 40 NNE 6 9 30.14 1021 10 16 0.00 0.00
11:56 am 11:56 Sunny 45 7.2 18 -7.8 34 34 undefined N/A 30.13 1020 10 16 0.00 0.00
12:56 pm 12:56 Sunny 49 9.4 14 -10 25 25 VRB 7 11 30.09 1019 10 16 0.00 0.00
1:56 pm 13:56 Sunny 52 11.1 12 -11.1 20 20 S 9 15 30.06 1018 10 16 0.00 0.00
2:56 pm 14:56 Sunny 52 11.1 14 -10 22 22 undefined N/A 30.06 1018 10 16 0.00 0.00
3:56 pm 15:56 Mostly Sunny 53 11.7 13 -10.6 20 20 VRB 5 7 30.03 1017 10 16 0.00 0.00
4:56 pm 16:56 Mostly Cloudy 54 12.2 11 -11.7 18 18 VRB 5 7 30.02 1017 10 16 0.00 0.00
5:56 pm 17:56 Cloudy 52 11.1 10 -12.2 18 18 WSW 7 11 30.04 1017 10 16 0.00 0.00
6:56 pm 18:56 Cloudy 51 10.6 12 -11.1 21 21 SSW 3 6 30.03 1017 10 16 0.00 0.00
7:56 pm 19:56 Mostly Cloudy 47 8.3 15 -9.4 28 28 WSW 3 6 30.01 1016 10 16 0.00 0.00
8:56 pm 20:56 Mostly Cloudy 44 6.7 15 -9.4 31 31 Calm 30.02 1017 10 16 0.00 0.00
9:56 pm 21:56 Clear 34 1.1 17 -8.3 50 50 SSE 8 13 30.04 1017 10 16 0.00 0.00
10:56 pm 22:56 Mostly Clear 35 1.7 16 -8.9 46 46 SSE 3 6 30.03 1017 10 16 0.00 0.00
11:56 pm 23:56 Clear 31 -0.6 16 -8.9 54 54 S 6 9 30.03 1017 10 16 0.00 0.00

Powered by AerisWeather